Location: Alphen aan den Rijn
(52.1277°N, 4.6689°E)
Time: 21:25:32
(UTC+02:00)

Envisat - Pass Details

Date: 04 March 2018
Orbit: 764 x 766 km, 98.2° (Epoch: 20 June)

Event Time Altitude Azimuth Distance (km) Brightness Sun altitude
Rises 19:46:18 0° 160° (SSE) 3,220 6.0 -13.1°
Reaches altitude 10° 19:48:35 10° 159° (SSE) 2,298 5.2 -13.4°
Maximum altitude 19:53:39 81° 73° (ENE) 782 2.9 -14.2°
Drops below altitude 10° 19:58:46 10° 347° (NNW) 2,315 5.8 -15.0°
Sets 20:01:05 0° 347° (NNW) 3,246 6.6 -15.3°
